Vorticity
8 6 7 7 8 8 9 7 -6 -21 -10 9 0 5 -3 -16 5 19 10 3 -2 1 2 8 7 10 6 3 2 3 4 1 -0 2 7 1 4 -1 7 5 4 5 5 6 6 4 5 4 5
8 8 7 7 8 8 18 18 14 -2 13 10 12 1 4 -14 10 7 4 8 5 4 3 4 4 4 8 6 3 5 3 4 4 5 11 9 9 10 2 4 5 4 6 7 6 4 3 4 5
6 8 9 11 9 8 23 -15 -1 3 6 8 5 3 4 -5 5 8 2 2 2 2 1 2 5 9 8 7 6 7 2 2 3 2 2 -1 7 13 10 6 5 6 7 6 5 4 5 6 7
7 6 6 9 14 11 17 -26 -3 4 5 2 4 5 9 7 7 7 12 11 9 9 10 12 12 7 5 7 9 2 5 3 2 4 -4 2 7 7 3 7 4 6 7 7 5 5 7 7 7
4 3 8 9 18 -7 -5 0 11 8 -3 -1 24 27 27 29 20 16 10 9 8 9 11 12 7 5 5 4 2 5 1 2 4 8 9 9 3 11 10 11 6 5 5 5 5 4 4 5 5
7 5 9 7 12 16 0 1 19 8 -2 9 10 8 12 15 15 15 14 14 14 13 10 7 6 7 5 5 7 3 5 2 9 2 7 -4 5 5 11 8 4 5 5 4 5 4 5 4 4
11 10 8 9 11 32 -9 -7 3 2 12 12 4 8 11 7 11 11 13 13 13 7 7 7 7 6 6 5 5 5 7 12 4 10 17 27 8 5 10 0 4 5 4 4 5 5 5 5 5
7 7 14 14 3 5 4 2 -1 11 0 4 2 5 9 11 2 8 10 11 7 7 6 7 7 8 7 6 2 11 11 4 9 18 28 1 8 9 12 -4 4 4 4 4 3 3 3 4 4
3 6 7 12 7 4 3 5 -5 23 12 5 6 7 6 3 4 8 10 6 4 6 6 7 6 7 6 8 8 -2 8 18 11 16 3 3 4 6 1 2 5 3 3 3 4 4 5 5 4
3 6 11 5 4 9 5 -2 22 -3 3 4 3 2 2 9 11 13 10 11 7 7 6 6 6 5 6 6 -0 5 8 8 8 2 4 4 4 4 4 4 4 3 3 3 3 3 4 4 4
0 8 0 12 9 1 14 22 -9 11 8 4 4 8 2 9 2 8 9 10 7 8 6 4 5 4 4 5 5 7 6 6 7 5 5 5 3 4 4 4 3 3 3 3 3 4 4 4 4
8 7 7 4 11 -0 6 12 11 13 2 7 5 6 3 8 4 4 7 12 8 8 9 8 6 4 4 5 7 7 7 6 6 5 5 4 4 5 6 6 5 4 5 5 4 4 3 3 3
6 9 9 10 3 0 2 5 9 8 7 6 6 5 5 3 6 3 4 8 8 7 7 6 6 6 7 6 6 7 7 7 6 7 6 6 6 5 5 5 4 5 6 5 4 4 4 3 4
1 6 12 8 12 8 5 5 4 15 7 5 1 5 6 4 1 1 3 5 8 8 8 7 6 7 7 6 6 5 6 5 4 6 6 6 5 5 5 5 6 7 5 2 2 5 5 5 7
3 2 9 14 7 8 10 3 11 13 18 10 6 6 5 5 4 2 0 5 7 4 4 4 5 6 5 7 7 6 5 5 6 5 4 5 5 6 7 5 6 4 2 4 5 4 4 7 8
9 5 7 6 4 10 3 17 5 1 5 5 12 11 7 6 8 5 6 6 5 6 6 6 5 4 2 3 6 8 9 8 6 7 8 8 6 5 4 5 6 4 3 4 5 7 8 9 7
7 3 1 5 17 4 8 7 18 12 3 2 14 9 6 8 14 10 8 5 6 9 9 8 8 9 9 7 6 7 7 8 5 7 7 5 5 5 6 6 6 4 4 5 6 6 6 7 8
5 9 12 14 13 5 2 8 8 -0 4 -1 -8 -5 4 -11 4 8 10 10 9 12 11 7 8 7 6 6 6 7 7 4 5 4 5 6 6 6 6 6 6 5 5 6 8 10 9 9 13
20 11 11 9 21 2 2 5 4 2 7 -2 -5 4 13 5 7 9 13 9 10 9 10 10 9 7 6 7 8 8 8 8 8 8 7 6 6 6 6 6 5 6 8 8 10 9 10 19 15
4 5 2 8 10 18 24 8 2 7 8 13 15 -2 3 9 5 0 5 15 24 5 2 -2 -2 2 5 12 11 9 9 8 7 5 5 5 5 5 5 6 5 4 6 6 4 15 18 5 6
-4 1 3 4 6 5 7 4 9 12 12 23 16 13 12 10 12 7 10 9 -3 9 26 19 25 28 20 10 7 7 6 5 4 5 5 5 5 6 4 4 9 8 17 24 21 7 7 17 17
2 5 4 5 10 12 12 4 -0 16 13 13 15 24 5 4 6 12 10 5 12 24 19 16 10 5 0 6 13 8 7 6 6 7 6 7 6 4 11 7 14 10 9 15 15 17 20 6 9
1 -2 5 5 4 6 8 6 4 11 21 26 27 13 8 4 11 12 6 11 4 5 6 10 11 9 9 10 8 7 7 7 8 7 6 5 5 5 13 11 15 18 15 15 5 8 12 12 10
7 7 3 5 3 9 -4 5 1 14 20 29 18 20 11 10 2 9 8 3 -8 14 14 12 10 9 10 9 8 8 7 8 9 10 13 15 15 12 9 9 12 12 11 12 11 11 9 12 19
13 -4 4 1 1 2 -2 2 11 20 8 11 23 31 -7 7 9 3 1 9 -0 14 14 9 9 8 9 9 7 9 10 10 10 9 10 10 9 10 9 16 12 11 9 9 14 15 14 9 10
6 17 7 6 11 8 10 6 -4 32 10 -16 25 21 20 22 1 8 2 4 15 16 7 9 10 8 7 7 8 12 11 11 9 9 11 11 11 12 16 7 9 9 10 10 10 8 7 13 8
6 9 23 9 2 18 11 10 1 -4 1 -4 9 -4 -0 4 8 8 5 -15 16 11 7 9 14 11 12 11 12 10 11 12 10 11 9 12 10 8 8 8 7 9 8 11 12 10 15 18 20
14 17 17 -1 8 6 10 20 38 13 17 14 8 2 4 4 12 17 30 28 -10 8 3 10 14 9 10 11 10 11 11 12 9 9 8 8 6 8 7 7 8 9 11 16 16 13 12 22 10
8 -3 4 4 -3 13 11 16 -23 16 4 12 9 39 17 11 38 15 48 -10 -20 3 11 11 10 9 12 12 13 10 10 9 9 6 7 8 7 7 6 8 7 14 18 16 13 9 22 10 7
15 19 17 22 17 4 11 19 19 15 11 1 -30 7 -40 -9 -21 52 -10 -31 -2 2 13 15 14 12 10 10 8 10 7 10 8 9 6 7 7 9 6 9 15 17 11 10 10 20 14 6 7
Height
5844 5843 5843 5843 5847 5846 5848 5850 5844 5844 5844 5848 5849 5850 5851 5853 5855 5854 5851 5850 5852 5852 5853 5854 5853 5853 5853 5852 5852 5852 5852 5852 5851 5851 5850 5850 5849 5848 5848 5847 5847 5846 5845 5844 5842 5841 5840 5839 5838
5841 5840 5840 5839 5843 5842 5846 5843 5837 5838 5842 5843 5843 5844 5847 5849 5850 5849 5848 5847 5847 5847 5848 5849 5848 5848 5848 5848 5848 5848 5848 5847 5847 5847 5846 5845 5844 5843 5843 5842 5841 5841 5841 5840 5839 5837 5836 5834 5834
5838 5838 5837 5836 5839 5840 5841 5837 5833 5835 5838 5839 5840 5839 5840 5842 5843 5842 5842 5842 5841 5841 5841 5842 5842 5842 5842 5842 5843 5843 5843 5843 5842 5842 5842 5841 5840 5838 5838 5838 5837 5837 5836 5836 5835 5833 5832 5831 5830
5835 5836 5835 5835 5837 5835 5835 5835 5833 5831 5832 5834 5830 5834 5835 5834 5831 5834 5834 5836 5835 5834 5833 5834 5835 5836 5836 5838 5839 5839 5838 5837 5836 5836 5836 5836 5835 5834 5833 5833 5832 5831 5832 5831 5830 5829 5828 5827 5825
5831 5832 5832 5832 5832 5832 5828 5830 5828 5827 5830 5824 5825 5825 5826 5823 5824 5826 5827 5828 5827 5826 5827 5828 5829 5830 5832 5833 5834 5833 5833 5832 5831 5831 5831 5830 5830 5829 5828 5828 5827 5826 5826 5826 5825 5823 5823 5822 5821
5828 5828 5828 5828 5829 5828 5824 5824 5826 5825 5827 5818 5820 5819 5819 5817 5818 5819 5819 5820 5820 5821 5822 5823 5824 5825 5826 5827 5827 5828 5827 5826 5825 5824 5824 5823 5824 5824 5822 5823 5822 5821 5820 5820 5819 5819 5818 5819 5818
5826 5826 5824 5824 5825 5825 5820 5819 5819 5821 5819 5814 5812 5815 5815 5812 5813 5813 5813 5814 5815 5816 5817 5819 5820 5821 5822 5821 5821 5821 5820 5819 5818 5817 5816 5816 5816 5818 5817 5817 5817 5816 5815 5815 5814 5814 5814 5813 5813
5820 5821 5823 5820 5817 5818 5816 5815 5814 5814 5813 5809 5808 5811 5811 5807 5808 5808 5808 5809 5810 5811 5812 5814 5815 5816 5816 5816 5815 5815 5814 5813 5811 5809 5809 5810 5812 5813 5812 5812 5811 5811 5810 5809 5809 5809 5808 5807 5807
5820 5818 5818 5816 5813 5811 5810 5809 5805 5809 5807 5807 5803 5806 5805 5802 5803 5804 5803 5803 5804 5805 5807 5807 5808 5808 5809 5809 5809 5809 5807 5806 5805 5803 5804 5804 5806 5806 5806 5806 5806 5806 5805 5804 5804 5803 5803 5801 5800
5817 5816 5814 5810 5808 5807 5804 5804 5803 5803 5803 5798 5801 5800 5800 5798 5798 5799 5799 5798 5798 5799 5800 5800 5800 5801 5801 5801 5802 5802 5800 5800 5798 5798 5799 5799 5799 5800 5798 5799 5799 5798 5797 5796 5796 5795 5796 5795 5794
5809 5810 5809 5809 5805 5802 5802 5799 5798 5795 5797 5790 5794 5797 5794 5794 5793 5793 5793 5793 5793 5793 5794 5793 5793 5793 5794 5794 5795 5794 5794 5793 5793 5792 5793 5793 5791 5792 5792 5792 5791 5790 5789 5789 5788 5788 5787 5786 5786
5803 5802 5801 5801 5799 5796 5796 5799 5795 5792 5788 5786 5787 5789 5790 5788 5788 5787 5789 5788 5788 5787 5787 5787 5787 5787 5786 5787 5787 5786 5788 5787 5787 5786 5786 5786 5786 5787 5787 5786 5785 5784 5783 5782 5780 5780 5778 5778 5777
5797 5796 5794 5793 5793 5790 5789 5789 5790 5787 5779 5779 5781 5781 5784 5781 5781 5780 5784 5783 5781 5780 5780 5779 5779 5779 5780 5780 5779 5779 5780 5779 5778 5778 5778 5778 5778 5778 5777 5777 5776 5775 5775 5774 5773 5771 5770 5769 5767
5789 5788 5787 5786 5786 5784 5780 5781 5779 5783 5776 5771 5771 5772 5777 5776 5772 5774 5779 5779 5776 5773 5773 5772 5771 5771 5772 5771 5771 5771 5772 5771 5771 5771 5771 5770 5769 5769 5768 5767 5767 5767 5766 5764 5763 5761 5760 5758 5757
5782 5782 5780 5781 5777 5775 5773 5771 5771 5773 5769 5762 5763 5762 5765 5766 5765 5766 5770 5771 5769 5765 5764 5762 5762 5763 5762 5763 5764 5764 5764 5763 5763 5762 5761 5760 5760 5760 5759 5758 5758 5757 5755 5754 5752 5751 5749 5747 5745
5774 5771 5771 5771 5769 5767 5765 5765 5763 5762 5761 5758 5756 5752 5750 5752 5754 5756 5760 5762 5758 5756 5755 5755 5754 5753 5754 5754 5755 5755 5755 5754 5753 5753 5752 5752 5751 5751 5749 5748 5748 5746 5744 5743 5741 5739 5737 5734 5731
5766 5762 5759 5762 5762 5755 5755 5753 5752 5751 5750 5748 5746 5746 5744 5742 5744 5744 5746 5749 5750 5748 5746 5746 5745 5746 5745 5744 5744 5744 5745 5745 5744 5743 5742 5742 5741 5741 5739 5738 5737 5735 5733 5730 5728 5726 5724 5720 5716
5758 5754 5751 5752 5754 5747 5743 5742 5743 5743 5741 5740 5738 5736 5736 5739 5736 5736 5736 5736 5737 5738 5737 5736 5735 5735 5735 5735 5735 5735 5735 5734 5732 5732 5731 5731 5731 5729 5728 5727 5726 5723 5720 5718 5715 5714 5712 5708 5704
5750 5747 5743 5743 5748 5740 5738 5734 5733 5732 5729 5728 5726 5728 5724 5723 5724 5724 5727 5729 5729 5728 5726 5725 5724 5724 5724 5724 5725 5725 5724 5723 5723 5722 5722 5721 5720 5718 5716 5714 5713 5710 5708 5705 5703 5702 5700 5695 5691
5738 5736 5737 5735 5733 5733 5733 5729 5730 5729 5728 5724 5719 5713 5711 5711 5710 5710 5714 5716 5716 5717 5715 5713 5713 5714 5714 5715 5714 5712 5713 5712 5712 5711 5710 5709 5708 5707 5705 5702 5700 5698 5696 5694 5692 5690 5689 5686 5682
5729 5726 5724 5720 5720 5718 5715 5716 5720 5722 5719 5716 5713 5710 5702 5697 5701 5700 5703 5707 5706 5705 5703 5700 5700 5701 5703 5703 5702 5701 5701 5700 5700 5698 5698 5698 5697 5695 5693 5692 5689 5687 5685 5682 5680 5678 5678 5676 5673
5716 5715 5711 5709 5706 5706 5702 5698 5709 5705 5701 5701 5698 5696 5692 5685 5687 5692 5690 5692 5693 5691 5691 5691 5689 5689 5688 5688 5690 5690 5691 5690 5688 5687 5687 5686 5685 5684 5682 5680 5677 5675 5674 5671 5669 5667 5666 5665 5663
5708 5705 5701 5699 5696 5694 5698 5687 5696 5691 5683 5686 5682 5680 5679 5678 5677 5679 5680 5682 5683 5683 5682 5681 5679 5678 5678 5677 5678 5678 5679 5678 5679 5677 5676 5675 5674 5673 5671 5669 5667 5665 5663 5661 5658 5656 5654 5652 5650
5697 5691 5688 5685 5682 5684 5693 5677 5683 5678 5673 5670 5668 5668 5666 5669 5670 5669 5672 5673 5674 5673 5671 5671 5669 5668 5668 5667 5668 5668 5668 5667 5667 5667 5666 5665 5664 5663 5661 5659 5657 5654 5652 5650 5647 5646 5644 5642 5639
5685 5677 5674 5672 5673 5667 5680 5667 5666 5664 5663 5662 5661 5661 5660 5661 5661 5662 5663 5664 5666 5665 5662 5662 5661 5660 5659 5659 5658 5659 5659 5658 5658 5657 5657 5655 5653 5652 5651 5649 5647 5645 5643 5640 5638 5635 5634 5632 5629
5673 5667 5662 5655 5658 5657 5665 5659 5663 5654 5653 5655 5652 5648 5650 5650 5651 5653 5655 5655 5657 5654 5654 5655 5654 5652 5651 5651 5650 5650 5649 5649 5648 5647 5646 5645 5643 5642 5640 5638 5636 5635 5633 5630 5628 5626 5624 5622 5621
5660 5654 5653 5646 5644 5639 5641 5647 5655 5652 5634 5640 5643 5645 5640 5639 5642 5642 5644 5647 5647 5646 5646 5647 5645 5643 5642 5641 5641 5640 5640 5639 5638 5638 5636 5635 5634 5632 5630 5629 5627 5626 5624 5622 5620 5618 5615 5613 5613
5645 5644 5638 5635 5629 5623 5624 5627 5634 5634 5630 5629 5626 5631 5632 5625 5625 5629 5630 5635 5636 5635 5634 5636 5635 5633 5632 5631 5631 5630 5628 5628 5628 5628 5628 5627 5625 5624 5623 5621 5619 5617 5615 5612 5611 5609 5608 5606 5605
5639 5633 5627 5619 5616 5610 5607 5612 5626 5619 5621 5619 5616 5612 5609 5612 5610 5612 5616 5623 5626 5624 5622 5623 5624 5622 5622 5620 5619 5619 5619 5618 5619 5619 5618 5618 5617 5616 5615 5613 5611 5608 5606 5604 5602 5601 5600 5599 5598
5612 5613 5611 5600 5600 5599 5598 5599 5610 5605 5608 5606 5604 5603 5601 5599 5603 5603 5606 5612 5613 5612 5612 5612 5612 5611 5610 5609 5608 5609 5609 5609 5609 5610 5610 5610 5609 5608 5605 5603 5602 5599 5598 5596 5595 5594 5593 5592 5591